Regional Weather Roundup
Issued by NWS

Home | Current Version | Previous Version | Graphics & Text | Print | Product List | Glossary On
Versions: 1 2 3 4 5 6 7 8 9 10 11 12 13 14 15 16 17 18 19 20 21 22 23 24 25 26 27 28 29 30 31 32 33 34 35 36 37 38 39 40 41 42 43 44 45 46 47 48 49 50
000
ASUS44 KMEG 091800
RWRTN
TENNESSEE HOURLY STATE WEATHER ROUNDUP
NATIONAL WEATHER SERVICE MEMPHIS TN
1200 PM CST FRI DEC 09 2016

TNZ002-004-019-021-049-052-054-088>092-091900-
WEST TENNESSEE

CITY           SKY/WX    TMP DP  RH WIND       PRES   REMARKS
MEMPHIS INTL   MOSUNNY   35  16  45 CALM      30.64F
NWS MEMPHIS      N/A     34 N/A N/A MISG        N/A
JACKSON        SUNNY     32  18  56 N3        30.63F
DYERSBURG      SUNNY     30  18  59 CALM      30.65S
UNION CITY     SUNNY     28  16  59 CALM      30.63F
PARIS          SUNNY     28  16  59 VRB6      30.61F WCI  22
$$

TNZ008-025-027-028-033-062-065-066-091900-
NORTH MIDDLE TENNESSEE

CITY           SKY/WX    TMP DP  RH WIND       PRES   REMARKS
NASHVILLE      MOSUNNY   35  15  44 N8        30.60F WCI  29
CLARKSVILLE    MOSUNNY   31  15  52 NW6       30.60F WCI  25
SMYRNA         MOSUNNY   33  16  49 W6        30.61F WCI  28
CROSSVILLE     SUNNY     28  14  55 N7        30.47F WCI  21
$$

TNZ061-075-076-078-094-096-097-091900-
SOUTH MIDDLE TENNESSEE

CITY           SKY/WX    TMP DP  RH WIND       PRES   REMARKS
TULLAHOMA      SUNNY     30  16  55 NW9       30.54F WCI  22
WINCHESTER     SUNNY     30  18  59 NW7       30.54F WCI  23
SHELBYVILLE    SUNNY     32  18  55 N6        30.57F WCI  26
$$

TNZ017-018-042-046-047-091900-
NORTHEAST TENNESSEE

CITY           SKY/WX    TMP DP  RH WIND       PRES   REMARKS
TRI CITIES     PTSUNNY   30  14  51 SW8       30.44F WCI  22
$$

TNZ012-013-036-069-073-074-091900-
CENTRAL EAST TENNESSEE

CITY           SKY/WX    TMP DP  RH WIND       PRES   REMARKS
KNOXVILLE      MOSUNNY   33  15  47 VRB3      30.51F
OAK RIDGE      SUNNY     35  14  42 VRB3      30.52F
GATLINBURG     MOSUNNY   32  16  51 SW8       30.49F WCI  25
$$

TNZ083-085-099-091900-
SOUTHEAST TENNESSEE

CITY           SKY/WX    TMP DP  RH WIND       PRES   REMARKS
CHATTANOOGA    MOSUNNY   34  16  47 N5        30.52F WCI  30
$$

SKY/WX REPORTED AS FAIR MEANS FEW OR NO CLOUDS BELOW
12 THOUSAND FEET.





USA.gov is the U.S. government's official web portal to all federal, state and local government web resources and services.